Location: Leedale
(52.5833°N, 114.4833°W)
Time: 07:38:19
(UTC+00:00)

BlueWalker 3 - Pass Details

Date: 13 August 2024
Orbit: 476 x 487 km, 53.2° (Epoch: 08 September)

Event Time Altitude Azimuth Distance (km) Brightness Sun altitude
Exits shadow 10:13:29 27° 250° (WSW) 964 2.9 -15.5°
Maximum altitude 10:15:26 82° 166° (SSE) 503 1.8 -15.3°
Drops below altitude 10° 10:19:16 10° 78° (ENE) 1,691 5.4 -15.0°
Sets 10:21:27 0° 78° (ENE) 2,575 6.4 -14.8°
